CW7427 Weather Reports


Display with metric or nautical units.
time (UTC)temp
F
wind
direction
speed
MPH
gust
MPH
rain 1hr
in
rain 24hr
in
rain mn
in
humidity
%
barometer
mb
20260902194736 66 324 0.0 5.0 0.00 0.00 0.00 62 1007.4
20260902194231 66 324 0.0 0.0 0.00 0.00 0.00 62 1007.5
20260902193511 66 324 0.0 0.0 0.00 0.00 0.00 62 1007.6
20260902193010 66 324 0.0 0.0 0.00 0.00 0.00 62 1007.5
20260902192502 66 324 0.0 0.0 0.00 0.00 0.00 62 1007.5
20260902191958 66 324 0.0 0.0 0.00 0.00 0.00 62 1007.8
20260902191448 67 324 0.0 0.0 0.00 0.00 0.00 62 1007.9
20260902190922 67 324 0.0 0.0 0.00 0.00 0.00 62 1008.1
20260902190408 67 324 0.0 0.0 0.00 0.00 0.00 62 1008.3
20260902190121 67 324 0.0 0.0 0.00 0.00 0.00 63 1008.3
20260902185402 67 324 0.0 0.0 0.00 0.00 0.00 64 1008.5
20260902184902 68 324 0.0 0.0 0.00 0.00 0.00 64 1008.8
20260902184403 68 324 0.0 0.0 0.00 0.00 0.00 63 1008.8
20260902183902 68 324 0.0 0.0 0.00 0.00 0.00 63 1009.0
20260902183336 68 324 0.0 0.0 0.00 0.00 0.00 62 1009.0
20260902182810 69 324 0.0 0.0 0.00 0.00 0.00 61 1009.3
20260902182311 69 324 0.0 0.0 0.00 0.00 0.00 59 1009.4
20260902181523 69 324 0.0 0.0 0.00 0.00 0.00 56 1009.2
20260902180802 69 324 0.0 0.0 0.00 0.00 0.00 56 1008.9
20260902180302 69 324 0.0 0.0 0.00 0.00 0.00 56 1008.5
20260902175802 69 324 0.0 0.0 0.00 0.00 0.00 56 1008.2
20260902175238 69 324 0.0 2.0 0.00 0.00 0.00 56 1008.1
20260902174738 69 324 0.0 2.0 0.00 0.00 0.00 56 1008.1
20260902174209 69 320 0.0 2.0 0.00 0.00 0.00 56 1008.1
20260902173928 69 320 0.0 2.0 0.00 0.00 0.00 56 1008.1
20260902173424 69 317 0.0 1.0 0.00 0.00 0.00 56 1008.2
20260902172653 69 317 0.0 1.0 0.00 0.00 0.00 56 1008.1
20260902172125 69 315 0.0 4.0 0.00 0.00 0.00 56 1008.4
20260902171613 69 315 0.0 4.0 0.00 0.00 0.00 56 1008.5
20260902171104 69 313 0.0 1.0 0.00 0.00 0.00 57 1008.6
20260902170558 68 312 0.0 1.0 0.00 0.00 0.00 56 1008.7
20260902170038 68 312 0.0 1.0 0.00 0.00 0.00 57 1008.8
20260902165531 68 312 0.0 2.0 0.00 0.00 0.00 57 1008.9
20260902165232 68 312 0.0 4.0 0.00 0.00 0.00 57 1008.9
20260902164506 68 312 0.0 4.0 0.00 0.00 0.00 57 1009.1
20260902164008 68 315 0.0 1.0 0.00 0.00 0.00 57 1009.2
20260902163502 68 315 0.0 0.0 0.00 0.00 0.00 57 1009.2
20260902163219 69 315 0.0 0.0 0.00 0.00 0.00 57 1009.3
20260902162452 69 315 0.0 0.0 0.00 0.00 0.00 57 1009.5
20260902161935 69 315 0.0 0.0 0.00 0.00 0.00 56 1009.5
20260902161426 69 315 0.0 0.0 0.00 0.00 0.00 56 1009.7
20260902160916 69 315 0.0 0.0 0.00 0.00 0.00 56 1009.7
20260902160406 69 315 0.0 0.0 0.00 0.00 0.00 57 1009.8
20260902160128 69 315 0.0 0.0 0.00 0.00 0.00 56 1009.9
20260902155346 69 315 0.0 0.0 0.00 0.00 0.00 56 1010.0
20260902154839 69 315 0.0 0.0 0.00 0.00 0.00 55 1009.9
20260902154326 69 315 0.0 4.0 0.00 0.00 0.00 55 1010.0
20260902153820 69 315 0.0 4.0 0.00 0.00 0.00 55 1010.1
20260902153306 69 318 0.0 2.0 0.00 0.00 0.00 55 1010.1
20260902152807 69 314 0.0 3.0 0.00 0.00 0.00 55 1010.1
20260902152255 69 319 0.0 3.0 0.00 0.00 0.00 55 1010.1
20260902151737 69 337 0.0 3.0 0.00 0.00 0.00 56 1010.1
20260902151226 69 343 0.0 3.0 0.00 0.00 0.00 56 1010.2
20260902150716 69 344 0.0 3.0 0.00 0.00 0.00 56 1010.2
20260902150205 69 345 0.0 3.0 0.00 0.00 0.00 56 1010.1
20260902145656 69 298 0.0 5.0 0.00 0.00 0.00 56 1010.3
20260902145146 69 298 0.0 6.0 0.00 0.00 0.00 55 1010.3
20260902144640 69 296 0.0 6.0 0.00 0.00 0.00 55 1010.4
20260902144125 69 300 0.0 4.0 0.00 0.00 0.00 55 1010.4
20260902143610 69 297 0.0 3.0 0.00 0.00 0.00 55 1010.5
20260902143057 69 304 0.0 5.0 0.00 0.00 0.00 56 1010.5
20260902142543 68 300 0.0 5.0 0.00 0.00 0.00 56 1010.6
20260902142030 68 305 0.0 1.0 0.00 0.00 0.00 56 1010.7
20260902141507 68 305 0.0 2.0 0.00 0.00 0.00 56 1010.6
20260902141226 68 304 0.0 2.0 0.00 0.00 0.00 56 1010.8
20260902140445 68 304 0.0 0.0 0.00 0.00 0.00 57 1010.7
20260902135937 68 304 0.0 0.0 0.00 0.00 0.00 57 1010.8
20260902135421 67 304 0.0 2.0 0.00 0.00 0.00 57 1010.8
20260902134911 67 320 0.0 2.0 0.00 0.00 0.00 57 1010.8
20260902134408 68 320 0.0 2.0 0.00 0.00 0.00 56 1011.0
20260902133905 68 320 0.0 0.0 0.00 0.00 0.00 56 1011.0
20260902133406 68 320 0.0 0.0 0.00 0.00 0.00 55 1011.0
20260902132855 68 320 0.0 1.0 0.00 0.00 0.00 55 1011.1
20260902132329 69 320 0.0 2.0 0.00 0.00 0.00 55 1011.1
20260902131820 69 320 0.0 2.0 0.00 0.00 0.00 54 1011.0
20260902131309 69 319 0.0 4.0 0.00 0.00 0.00 54 1011.2
20260902130800 69 310 0.0 2.0 0.00 0.00 0.00 54 1011.4
20260902130259 69 310 0.0 2.0 0.00 0.00 0.00 54 1011.4
20260902125755 69 306 0.0 2.0 0.00 0.00 0.00 54 1011.5
20260902125522 69 306 0.0 1.0 0.00 0.00 0.00 54 1011.5
20260902124724 69 306 0.0 2.0 0.00 0.00 0.00 54 1011.4
20260902124219 69 306 0.0 2.0 0.00 0.00 0.00 54 1011.5
20260902123703 69 293 0.0 2.0 0.00 0.00 0.00 53 1011.6
20260902123200 69 293 0.0 2.0 0.00 0.00 0.00 53 1011.8
20260902122702 69 292 0.0 2.0 0.00 0.00 0.00 53 1011.7
20260902122156 69 289 0.0 2.0 0.00 0.00 0.00 54 1011.8
20260902121649 69 289 0.0 2.0 0.00 0.00 0.00 54 1011.8
20260902121146 69 289 0.0 2.0 0.00 0.00 0.00 54 1011.8
20260902120645 69 287 0.0 0.0 0.00 0.00 0.00 54 1011.9
20260902120141 69 287 0.0 1.0 0.00 0.00 0.00 55 1011.9
20260902115616 68 287 0.0 1.0 0.00 0.00 0.00 55 1011.9
20260902115110 68 286 0.0 0.0 0.00 0.00 0.00 56 1012.0
20260902114602 67 291 0.0 0.0 0.00 0.00 0.00 57 1012.0
20260902114100 67 291 0.0 0.0 0.00 0.00 0.00 58 1012.0
20260902113819 67 291 0.0 0.0 0.00 0.00 0.00 58 1012.1
20260902113046 67 291 0.0 0.0 0.00 0.00 0.00 57 1012.1
20260902112539 67 291 0.0 0.0 0.00 0.00 0.00 58 1012.1
20260902112258 67 291 0.0 0.0 0.00 0.00 0.00 59 1012.2
20260902111521 66 291 0.0 0.0 0.00 0.00 0.00 60 1012.2
20260902111021 66 291 0.0 0.0 0.00 0.00 0.00 59 1012.2
20260902110517 66 291 0.0 0.0 0.00 0.00 0.00 60 1012.2
20260902110007 67 291 0.0 0.0 0.00 0.00 0.00 58 1012.3
20260902105502 67 291 0.0 0.0 0.00 0.00 0.00 58 1012.3
20260902104957 67 291 0.0 0.0 0.00 0.00 0.00 57 1012.3
20260902104449 67 291 0.0 0.0 0.00 0.00 0.00 57 1012.3
20260902103949 68 291 0.0 0.0 0.00 0.00 0.00 56 1012.3
20260902103422 68 291 0.0 0.0 0.00 0.00 0.00 55 1012.2
20260902102921 68 291 0.0 0.0 0.00 0.00 0.00 55 1012.1
20260902102401 69 291 0.0 0.0 0.00 0.00 0.00 54 1012.2
20260902101901 69 291 0.0 0.0 0.00 0.00 0.00 53 1012.1
20260902101335 70 291 0.0 0.0 0.00 0.00 0.00 52 1012.2
20260902100835 70 291 0.0 0.0 0.00 0.00 0.00 51 1012.2
20260902100307 70 291 0.0 0.0 0.00 0.00 0.00 51 1012.1
20260902095809 71 291 0.0 0.0 0.00 0.00 0.00 50 1012.1
20260902095308 71 291 0.0 0.0 0.00 0.00 0.00 49 1012.2
20260902094753 71 291 0.0 0.0 0.00 0.00 0.00 49 1012.1
20260902094255 72 290 0.0 0.0 0.00 0.00 0.00 48 1012.1
20260902093720 72 290 0.0 0.0 0.00 0.00 0.00 47 1012.1
20260902093212 72 290 0.0 0.0 0.00 0.00 0.00 46 1012.1
20260902092659 73 290 0.0 0.0 0.00 0.00 0.00 46 1012.1
20260902092201 72 290 0.0 0.0 0.00 0.00 0.00 46 1012.0
20260902091646 72 290 0.0 0.0 0.00 0.00 0.00 47 1012.0
20260902091133 72 291 0.0 0.0 0.00 0.00 0.00 48 1011.9
20260902090904 72 291 0.0 0.0 0.00 0.00 0.00 47 1011.9
20260902090803 72 291 0.0 0.0 0.00 0.00 0.00 47 1011.9
20260902085547 72 291 0.0 0.0 0.00 0.00 0.00 46 1011.9
20260902085027 72 291 0.0 0.0 0.00 0.00 0.00 46 1011.9
20260902084515 73 291 0.0 0.0 0.00 0.00 0.00 46 1011.8
20260902084005 73 291 0.0 0.0 0.00 0.00 0.00 45 1011.8
20260902083725 73 291 0.0 0.0 0.00 0.00 0.00 45 1011.7
20260902082943 73 291 0.0 0.0 0.00 0.00 0.00 46 1011.8
20260902082414 73 291 0.0 0.0 0.00 0.00 0.00 46 1011.6
20260902081907 73 291 0.0 0.0 0.00 0.00 0.00 45 1011.6
20260902081343 74 291 0.0 0.0 0.00 0.00 0.00 44 1011.6
20260902080830 74 291 0.0 0.0 0.00 0.00 0.00 44 1011.6
20260902080319 74 291 0.0 0.0 0.00 0.00 0.00 44 1011.5
20260902080035 74 290 0.0 0.0 0.00 0.00 0.00 43 1011.4
20260902075258 75 290 0.0 0.0 0.00 0.00 0.00 43 1011.4
20260902074749 75 291 0.0 0.0 0.00 0.00 0.00 42 1011.3
20260902074501 75 290 0.0 1.0 0.00 0.00 0.00 42 1011.2
20260902073955 76 290 0.0 4.0 0.00 0.00 0.00 42 1011.2
20260902073223 76 290 0.0 4.0 0.00 0.00 0.00 41 1011.1
20260902072712 77 222 0.0 2.0 0.00 0.00 0.00 40 1011.0
20260902072202 77 215 0.0 3.0 0.00 0.00 0.00 40 1011.0
20260902071656 77 215 0.0 3.0 0.00 0.00 0.00 39 1010.9
20260902071415 77 218 0.0 2.0 0.00 0.00 0.00 39 1010.9
20260902070646 77 215 0.0 1.0 0.00 0.00 0.00 39 1010.9
20260902070139 77 215 0.0 2.0 0.00 0.00 0.00 38 1010.9
20260902065638 78 215 0.0 5.0 0.00 0.00 0.00 38 1010.9
20260902065342 78 238 0.0 4.0 0.00 0.00 0.00 37 1010.8
20260902064613 78 328 0.0 2.0 0.00 0.00 0.00 37 1010.7
20260902064101 79 329 0.0 4.0 0.00 0.00 0.00 37 1010.7
20260902063603 79 329 0.0 4.0 0.00 0.00 0.00 36 1010.7
20260902063330 80 319 0.0 4.0 0.00 0.00 0.00 37 1010.7
20260902062548 80 340 1.0 6.0 0.00 0.00 0.00 36 1010.6
20260902062316 80 234 1.0 6.0 0.00 0.00 0.00 36 1010.7
20260902061548 80 323 1.0 5.0 0.00 0.00 0.00 36 1010.6
20260902061308 80 300 1.0 4.0 0.00 0.00 0.00 36 1010.6
20260902060548 80 271 1.0 5.0 0.00 0.00 0.00 37 1010.5
20260902060030 80 329 1.0 5.0 0.00 0.00 0.00 36 1010.6
20260902055526 80 274 0.0 5.0 0.00 0.00 0.00 36 1010.6
20260902055021 80 320 0.0 5.0 0.00 0.00 0.00 37 1010.5
20260902054522 81 311 0.0 4.0 0.00 0.00 0.00 36 1010.6
20260902054014 81 309 0.0 4.0 0.00 0.00 0.00 36 1010.7
20260902053504 82 302 0.0 3.0 0.00 0.00 0.00 35 1010.6
20260902052956 82 290 1.0 5.0 0.00 0.00 0.00 35 1010.8
20260902052927 82 338 1.0 5.0 0.00 0.00 0.00 34 1010.8
20260902052212 83 131 1.0 7.0 0.00 0.00 0.00 34 1010.7
20260902051444 83 131 1.0 7.0 0.00 0.00 0.00 34 1010.7
20260902051203 83 330 1.0 6.0 0.00 0.00 0.00 35 1010.7
20260902050434 83 266 0.0 4.0 0.00 0.00 0.00 33 1010.7
20260902045926 84 328 0.0 6.0 0.00 0.00 0.00 34 1010.7
20260902045428 83 328 1.0 6.0 0.00 0.00 0.00 36 1010.7
20260902044916 83 311 1.0 5.0 0.00 0.00 0.00 35 1010.6
20260902044412 83 313 1.0 5.0 0.00 0.00 0.00 35 1010.6
20260902043912 83 319 0.0 5.0 0.00 0.00 0.00 35 1010.5
20260902043855 83 330 0.0 3.0 0.00 0.00 0.00 34 1010.6
20260902043119 83 322 1.0 3.0 0.00 0.00 0.00 36 1010.6
20260902042614 83 327 1.0 5.0 0.00 0.00 0.00 34 1010.7
20260902041842 83 336 1.0 10.0 0.00 0.00 0.00 34 1010.7
20260902041601 83 323 1.0 10.0 0.00 0.00 0.00 36 1010.6
20260902040826 83 321 1.0 4.0 0.00 0.00 0.00 34 1010.7
20260902040315 82 318 1.0 6.0 0.00 0.00 0.00 34 1010.7
20260902040030 82 5 1.0 6.0 0.00 0.00 0.00 33 1010.7
20260902035305 82 0 1.0 6.0 0.00 0.00 0.00 34 1010.7
20260902035015 83 15 1.0 5.0 0.00 0.00 0.00 32 1010.8
20260902034244 82 122 1.0 5.0 0.00 0.00 0.00 33 1010.9
20260902033954 82 159 1.0 5.0 0.00 0.00 0.00 33 1010.9
20260902033454 83 259 1.0 5.0 0.00 0.00 0.00 34 1010.9
20260902032722 83 293 1.0 4.0 0.00 0.00 0.00 34 1011.0
20260902032442 83 307 0.0 4.0 0.00 0.00 0.00 31 1011.0
20260902031705 83 324 0.0 4.0 0.00 0.00 0.00 32 1011.2
20260902031155 83 324 1.0 4.0 0.00 0.00 0.00 35 1011.4
20260902030646 82 329 1.0 4.0 0.00 0.00 0.00 40 1011.5
20260902030135 82 290 1.0 5.0 0.00 0.00 0.00 41 1011.5
20260902025626 83 308 1.0 5.0 0.00 0.00 0.00 41 1011.7
20260902025116 82 300 1.0 8.0 0.00 0.00 0.00 40 1011.7
20260902024608 82 54 0.0 8.0 0.00 0.00 0.00 41 1011.9
20260902024104 82 309 1.0 6.0 0.00 0.00 0.00 41 1012.0
20260902023603 82 299 1.0 6.0 0.00 0.00 0.00 41 1012.2
20260902023103 82 287 1.0 4.0 0.00 0.00 0.00 40 1012.2
20260902022600 82 329 0.0 4.0 0.00 0.00 0.00 41 1012.3
20260902022057 82 307 0.0 4.0 0.00 0.00 0.00 42 1012.3
20260902021558 82 294 0.0 4.0 0.00 0.00 0.00 40 1012.3
20260902021056 82 320 1.0 4.0 0.00 0.00 0.00 41 1012.5
20260902020558 82 355 1.0 6.0 0.00 0.00 0.00 43 1012.6
20260902020310 81 40 1.0 6.0 0.00 0.00 0.00 41 1012.5
20260902015529 81 306 1.0 5.0 0.00 0.00 0.00 42 1012.7
20260902015014 81 344 1.0 7.0 0.00 0.00 0.00 40 1012.8
20260902014509 81 307 1.0 7.0 0.00 0.00 0.00 40 1012.9
20260902014009 81 294 0.0 4.0 0.00 0.00 0.00 40 1013.0
20260902013509 81 304 1.0 6.0 0.00 0.00 0.00 43 1013.0
20260902013008 80 292 1.0 6.0 0.00 0.00 0.00 43 1013.1
20260902012509 80 306 1.0 6.0 0.00 0.00 0.00 42 1013.2
20260902012003 80 321 0.0 5.0 0.00 0.00 0.00 42 1013.3
20260902011504 80 313 1.0 7.0 0.00 0.00 0.00 42 1013.4
20260902011004 80 290 2.0 7.0 0.00 0.00 0.00 43 1013.5
20260902010458 79 311 2.0 8.0 0.00 0.00 0.00 44 1013.5
20260902005951 79 355 1.0 8.0 0.00 0.00 0.00 46 1013.7
20260902005445 79 340 1.0 7.0 0.00 0.00 0.00 44 1013.7
20260902004936 79 315 1.0 6.0 0.00 0.00 0.00 43 1013.7
20260902004425 79 287 1.0 6.0 0.00 0.00 0.00 45 1013.9
20260902003920 79 308 1.0 6.0 0.00 0.00 0.00 45 1013.9
20260902003631 78 107 1.0 6.0 0.00 0.00 0.00 47 1014.0
20260902002903 78 229 1.0 6.0 0.00 0.00 0.00 48 1014.1
20260902002357 77 303 1.0 6.0 0.00 0.00 0.00 47 1014.1
20260902001852 78 327 1.0 5.0 0.00 0.00 0.00 47 1014.3
20260902001341 76 319 1.0 7.0 0.00 0.00 0.00 49 1014.4
20260902000831 76 347 1.0 7.0 0.00 0.00 0.00 48 1014.5
20260902000326 76 315 1.0 5.0 0.00 0.00 0.00 49 1014.6
20260901235815 76 296 0.0 5.0 0.00 0.00 0.00 49 1014.7
20260901235307 75 329 1.0 5.0 0.00 0.00 0.00 49 1014.6
20260901235025 75 306 1.0 5.0 0.00 0.00 0.00 51 1014.7
20260901234245 74 323 1.0 8.0 0.00 0.00 0.00 50 1014.6
20260901233735 74 305 1.0 8.0 0.00 0.00 0.00 50 1014.6
20260901233225 74 288 1.0 6.0 0.00 0.00 0.00 51 1014.6
20260901232937 74 151 1.0 4.0 0.00 0.00 0.00 51 1014.6
20260901232209 73 255 0.0 5.0 0.00 0.00 0.00 53 1014.7
20260901231924 71 296 0.0 7.0 0.00 0.00 0.00 55 1014.8
20260901231153 70 297 0.0 7.0 0.00 0.00 0.00 55 1014.8
20260901230920 70 293 0.0 4.0 0.00 0.00 0.00 55 1014.9
20260901230401 69 355 1.0 5.0 0.00 0.00 0.00 56 1014.8
20260901225627 69 288 1.0 7.0 0.00 0.00 0.00 56 1014.9
20260901225121 69 312 1.0 6.0 0.00 0.00 0.00 57 1015.0
20260901224614 69 339 1.0 4.0 0.00 0.00 0.00 57 1015.0
20260901224105 69 335 0.0 5.0 0.00 0.00 0.00 56 1015.0
20260901223557 69 274 0.0 7.0 0.00 0.00 0.00 57 1015.0
20260901223059 69 310 0.0 7.0 0.00 0.00 0.00 56 1015.0
20260901222544 69 303 0.0 5.0 0.00 0.00 0.00 56 1015.1
20260901222032 69 306 0.0 5.0 0.00 0.00 0.00 56 1015.1
20260901221524 69 332 0.0 4.0 0.00 0.00 0.00 56 1015.0
20260901221013 69 331 0.0 5.0 0.00 0.00 0.00 57 1014.9
20260901220502 68 302 0.0 5.0 0.00 0.00 0.00 57 1015.0
20260901215953 68 289 0.0 5.0 0.00 0.00 0.00 58 1015.0
20260901215444 67 289 0.0 5.0 0.00 0.00 0.00 57 1015.1
20260901214932 67 287 0.0 0.0 0.00 0.00 0.00 58 1015.0
20260901214423 67 286 0.0 5.0 0.00 0.00 0.00 58 1015.0
20260901213917 67 286 0.0 5.0 0.00 0.00 0.00 57 1014.9
20260901213411 67 325 0.0 5.0 0.00 0.00 0.00 58 1014.9
20260901212905 67 326 0.0 5.0 0.00 0.00 0.00 57 1014.9
20260901212357 67 287 0.0 1.0 0.00 0.00 0.00 58 1014.9
20260901212114 67 286 0.0 1.0 0.00 0.00 0.00 58 1014.9
20260901211348 67 286 0.0 3.0 0.00 0.00 0.00 57 1015.0
20260901210831 67 286 0.0 5.0 0.00 0.00 0.00 58 1015.1
20260901210325 66 288 0.0 5.0 0.00 0.00 0.00 58 1015.1
20260901210050 66 280 0.0 3.0 0.00 0.00 0.00 58 1015.1
20260901205308 66 287 0.0 0.0 0.00 0.00 0.00 58 1014.9
20260901205243 66 287 0.0 0.0 0.00 0.00 0.00 58 1014.9
20260901204257 66 287 0.0 0.0 0.00 0.00 0.00 57 1014.9
20260901203751 66 287 0.0 1.0 0.00 0.00 0.00 58 1014.8
20260901203242 66 287 0.0 1.0 0.00 0.00 0.00 57 1015.1
20260901202731 66 287 0.0 1.0 0.00 0.00 0.00 57 1015.1
20260901202233 66 287 0.0 1.0 0.00 0.00 0.00 57 1015.2
20260901201704 66 277 0.0 0.0 0.00 0.00 0.00 57 1015.3
20260901201204 66 277 0.0 0.0 0.00 0.00 0.00 57 1015.1
20260901200655 66 277 0.0 0.0 0.00 0.00 0.00 57 1015.1
20260901200407 66 277 0.0 2.0 0.00 0.00 0.00 57 1014.9
20260901195623 66 275 0.0 2.0 0.00 0.00 0.00 58 1014.7
20260901195113 66 275 0.0 2.0 0.00 0.00 0.00 58 1014.5